Hourly Data Report for September 29, 2017

All times are specified in Local Standard Time (LST). Add 1 hour to adjust for Daylight Saving Time where and when it is observed.

GRISE FIORD CLIMATE
NUNAVUT

76°25'22.040" N
82°54'08.020" W
44.50 m
2402351
71971
NGC

Download Data

Hourly Data (September 2017)
Hourly Data Report for September 29, 2017
Temp Definition
°C
Dew Point Temp Definition
°C
Rel Hum Definition
%
Wind Dir Definition
10's deg

Wind Spd Definition
km/h
Visibility Definition
km
Stn Press Definition
kPa
Hmdx Definition


Wind Chill Definition


Weather Definition


TIME
00:00 -4.2 -4.8 96 16 13   100.37   -9 LegendNANA
01:00 -4.3 -4.8 97 16 6   100.43   -7 LegendNANA
02:00 -4.4 -4.8 97 19 6   100.47   -7 LegendNANA
03:00 -4.6 -5.1 96 12 6   100.48   -7 LegendNANA
04:00 -4.7 -7.3 82 7 4   100.52   -6 LegendNANA
05:00 -4.6 -8.0 77 8 13   100.50   -10 LegendNANA
06:00 -3.5 -8.2 70 9 10   100.51   -7 LegendNANA
07:00 -3.9 -7.8 74 31 8   100.53   -7 LegendNANA
08:00 -3.3 -8.5 67 8 19   100.50   -9 LegendNANA
09:00 -3.7 -8.9 67 7 18   100.50   -10 LegendNANA
10:00 -3.4 -8.5 67 29 9   100.50   -7 LegendNANA
11:00 -3.3 -8.5 67 28 9   100.52   -7 LegendNANA
12:00 -2.9 -7.9 68 27 10   100.51   -7 LegendNANA
13:00 -2.0 -7.5 66 20 6   100.48   -4 LegendNANA
14:00 -2.0 -7.1 68 20 6   100.50   -4 LegendNANA
15:00 -1.6 -6.8 68 19 5   100.51   -3 LegendNANA
16:00 -1.7 -6.4 70 20 3   100.55   -3 LegendNANA
17:00 -1.8 -6.5 70 22 3   100.57   -3 LegendNANA
18:00 -1.9 -6.0 74 22 1   100.59   -2 LegendNANA
19:00 -1.7 -6.5 70 9 23   100.61   -8 LegendNANA
20:00 -2.7 -5.7 80 16 4   100.66   -4 LegendNANA
21:00 -2.2 -6.0 75 21 3   100.68   -3 LegendNANA
22:00 -2.6 -5.8 79 4 3   100.68   -4 LegendNANA
23:00 -2.6 -6.3 76 9 1   100.70   -3 LegendNANA

Notes on Data Quality.

Legend

  • E = Estimated
  • M = Missing
  • NA = Not Available
  • ‡ = Partner data that is not subject to review by the National Climate Archives
Date modified: